Location: Bas Brec
(44.2500°N, 6.6667°E)
Time: 16:33:40
(UTC+00:00)

Daily predictions for brighter satellites

Satellite Brightness Start Highest point End
(mag) Time Altitude Azimuth Time Altitude Azimuth Time Altitude Azimuth
NOSS 3-1 (C) 4.2 16:12:36 10° NNW 16:19:50 55° NE 16:28:17 10° ESE
Cosmos 44 3.7 16:20:31 10° NNW 16:25:03 39° NE 16:29:18 10° ESE
Okean O Rocket 3.4 16:23:30 10° E 16:25:23 13° ENE 16:27:16 10° NE
CZ-4C R/B 4.1 16:23:18 10° N 16:27:11 53° WNW 16:30:49 10° SSW
USA 305 3.9 16:24:46 10° W 16:28:43 37° NNW 16:32:40 10° NE
Cosmos 1340 Rocket 3.6 16:26:55 10° N 16:30:33 30° ENE 16:34:08 10° SE
CZ-4C R/B 4.0 16:26:22 10° NNW 16:31:25 21° NNE 16:37:06 10° ENE
Cosmos 1777 Rocket 4.5 16:27:32 10° NNW 16:32:48 70° WSW 16:38:02 10° S
Lacrosse 5 rocket 3.4 16:34:27 10° NNW 16:36:12 13° N 16:37:59 10° NNE
Cosmos 1408 Rocket 3.6 16:32:14 10° N 16:36:32 56° E 16:40:49 10° SSE
Cosmos 1464 Rocket 4.1 16:30:19 10° S 16:36:38 75° E 16:43:02 10° NNE
CORIOLIS 4.3 16:35:27 10° SE 16:40:40 54° ENE 16:45:57 10° N
Cosmos 1743 Rocket 4.1 16:37:44 10° N 16:41:41 34° ENE 16:45:38 10° SE
Cosmos 1898 Rocket 4.2 16:39:01 10° N 16:43:41 31° ENE 16:48:17 10° ESE
Cosmos 1933 4.4 16:41:19 10° SE 16:44:38 25° E 16:47:57 10° NE
H-2A R/B 2.5 16:43:05 10° SE 16:47:50 37° ENE 16:52:30 10° N
Iridium 2 4.4 16:44:41 10° NNW 16:48:23 57° W 16:52:03 10° S
CZ-2D R/B 3.9 16:46:01 10° SE 16:49:30 34° ENE 16:53:00 10° N
Cosmos 1833 Rocket 3.3 16:45:47 10° S 16:50:49 35° ESE 16:55:53 10° NE
Nadezhda 4 Rocket 4.0 16:45:46 10° N 16:52:06 72° E 16:58:24 10° SSE
Meteor 1-20 Rocket 4.5 16:49:02 10° N 16:54:41 50° ENE 17:00:20 10° SSE
ISS -2.1 16:55:02 10° NW 16:57:48 23° N 16:59:39 15° NE
ARGOS 3.9 16:53:59 10° SE 16:58:37 30° ENE 17:03:14 10° N
CZ-4B R/B 3.6 16:54:31 10° SE 16:59:30 38° ENE 17:04:25 10° N
USA 306 4.3 16:57:05 10° WNW 17:00:49 29° NNW 17:03:56 13° NE
SKYMED 2 4.5 16:58:58 10° NE 17:02:44 28° E 17:06:29 10° SSE
Cosmos 1606 3.7 16:59:14 10° SSW 17:02:52 47° WNW 17:06:32 10° N
Cosmos 1092 Rocket 4.2 16:57:17 10° N 17:03:30 52° ENE 17:09:39 10° SSE
PSLV R/B 3.6 17:01:06 10° SSE 17:04:42 59° ENE 17:08:22 10° N
SJ 16-02 2.9 17:01:29 10° NW 17:05:33 39° WSW 17:09:38 10° S
ATLAS CENTAUR R/B 3.3 16:54:28 10° SW 17:05:50 68° SE 17:09:33 17° ENE
AQUARIUS 4.2 17:03:34 10° SSE 17:08:04 88° W 17:12:34 10° NNW
Cosmos 1500 Rocket 3.5 17:07:21 10° N 17:11:50 78° E 17:16:14 10° SSE
Cosmos 1939 Rocket 3.7 17:09:58 10° S 17:14:02 56° W 17:18:05 10° NNW
Lacrosse 5 4.4 17:12:48 10° WNW 17:16:48 23° WSW 17:20:47 10° S
USA 307 4.4 17:14:09 10° WNW 17:17:50 27° NNW 17:20:14 17° NNE
MOS 1-B Rocket 4.0 17:13:07 10° NNE 17:18:51 60° ESE 17:25:17 10° S
CZ-2C R/B 2.8 17:15:28 10° NNE 17:20:30 46° E 17:25:27 10° S
Cosmos 2034 Rocket 4.2 17:14:42 10° SSW 17:20:51 74° W 17:27:02 10° N
USA 276 2.3 17:17:53 10° WNW 17:20:57 52° NNE 17:21:52 36° ENE
Cosmos 1627 Rocket 4.4 17:15:51 10° N 17:21:59 61° ENE 17:28:02 10° SSE
Cosmos 1805 Rocket 3.5 17:18:34 10° N 17:22:52 59° E 17:27:07 10° SSE
Cosmos 1500 3.7 17:20:03 10° N 17:23:31 35° ENE 17:26:57 10° SE
Cosmos 1763 Rocket 3.4 17:21:55 10° SSW 17:26:59 88° ESE 17:31:56 11° NNE
ATLAS CENTAUR R/B 3.9 17:25:05 10° WNW 17:27:31 15° NNW 17:30:04 10° N
COSMOS 2455 3.4 17:22:15 10° S 17:27:42 38° ESE 17:30:31 24° ENE
USA 267 4.1 17:24:23 15° NE 17:29:23 41° NNW 17:35:25 10° W
Cosmos 841 Rocket 3.9 17:24:49 10° S 17:29:38 41° ESE 17:32:02 25° NE
Cosmos 1937 Rocket 3.6 17:24:56 10° NNW 17:30:10 54° ENE 17:35:22 10° SE
Sich 1 3.0 17:27:10 10° N 17:31:23 56° E 17:35:36 10° SSE
Cosmos 2279 Rocket 4.3 17:28:08 10° SSE 17:33:56 43° E 17:39:45 10° NNE
GEOS 3 Rocket 3.8 17:33:05 20° ESE 17:36:32 51° NE 17:41:33 10° NNW
Meteor 1-25 Rocket 4.2 17:31:00 10° NNW 17:36:35 83° W 17:42:10 10° S
Landsat 5 3.7 17:35:36 32° NE 17:37:04 46° E 17:40:57 10° S
USA 308 4.5 17:36:49 10° WNW 17:40:19 24° N 17:41:37 21° NNE
Cosmos 990 Rocket 4.4 17:38:40 10° NNW 17:43:49 63° WSW 17:48:53 10° S
Cosmos 2322 Rocket 4.2 17:42:16 10° NNE 17:43:07 12° NNE 17:43:07 12° NNE
USA 229 DEB 3.9 17:37:39 10° NW 17:45:03 85° NE 17:52:55 10° SE
USA 229 3.9 17:37:45 10° NW 17:45:09 85° NE 17:53:00 10° SE
Cosmos 1634 Rocket 3.9 17:39:03 10° S 17:45:21 83° E 17:51:44 10° N
ATLAS 5 CENTAUR R/B 3.4 17:39:41 10° NW 17:45:50 26° NNE 17:46:14 25° NNE
Cosmos 2369 3.7 17:41:12 10° NNW 17:46:53 58° ENE 17:51:47 14° SE
deb Chang Zheng 4 3.5 17:44:01 10° SSE 17:48:19 87° WSW 17:52:39 10° NNW
Meteor 2-16 Rocket 4.4 17:44:26 10° N 17:50:27 56° ENE 17:56:27 10° SSE
COSMO-SKYMED 1 2.5 17:47:31 16° NNE 17:50:58 88° W 17:55:18 10° SSW
Cosmos 1697 Rocket 2.6 17:46:33 10° NNW 17:52:12 88° WSW 17:57:49 10° SSE
Cosmos 372 Rocket 4.0 17:48:51 10° NNW 17:54:00 55° ENE 17:56:21 31° SE
Cosmos 1980 Rocket 2.3 17:49:08 10° NNW 17:54:41 52° ENE 17:56:40 36° ESE
Cosmos 1782 2.8 17:50:45 10° SSW 17:54:45 79° W 17:57:01 25° N
Cosmos 1655 Rocket 4.5 17:49:42 10° N 17:55:28 37° ENE 17:55:28 37° ENE
Cosmos 1812 3.0 17:54:29 10° S 17:57:29 49° SSE 17:57:29 49° SSE
Cosmos 2026 Rocket 4.1 17:53:07 10° NNW 17:59:16 74° W 18:05:18 10° S
SL-16 R/B 3.9 17:56:03 10° N 17:57:57 16° NNE 17:57:57 16° NNE
Cosmos 858 Rocket 4.4 17:55:01 10° NNW 18:00:20 88° ENE 18:05:37 10° SSE
Okean O Rocket 1.7 17:56:39 10° S 18:01:06 79° WSW 18:05:34 10° NNW
Cosmos 1570 Rocket 4.5 17:57:22 10° S 18:01:34 40° SE 18:01:34 40° SE
Cosmos 2082 Rocket 2.1 17:58:02 10° S 18:03:39 64° ESE 18:05:10 46° NE
YAOGAN 1 4.5 18:07:40 18° N 18:07:40 18° N 18:08:50 10° N
SL-08 RB Rocket 3.6 18:01:29 10° SSE 18:06:07 79° ENE 18:10:46 10° N
Cosmos 2084 3.8 18:02:35 10° NW 18:06:53 64° SW 18:09:02 29° SSE
NOSS 3-1 (A) 4.4 18:00:54 10° NW 18:08:32 70° WSW 18:17:20 10° SSE
COSMOS 2406 3.4 18:06:30 10° SSW 18:12:13 69° WNW 18:15:25 27° NNE
Cosmos 2278 3.8 18:06:56 10° NNW 18:12:17 52° NE 18:12:17 52° NE
Cosmos 2180 Rocket 4.4 18:07:06 10° S 18:13:24 67° E 18:17:45 21° NNE
Lacrosse 5 rocket 3.6 18:13:43 10° NNW 18:14:43 14° NNW 18:14:43 14° NNW
Meteor 2-6 Rocket 4.1 18:10:57 10° S 18:16:43 65° E 18:17:22 60° ENE
NOSS 2-2 (D) 4.3 18:12:37 10° NNW 18:17:54 73° NE 18:19:47 48° ESE
Cosmos 1814 Rocket 3.9 18:13:34 10° S 18:18:31 67° SE 18:18:31 67° SE
NOSS 2-2 (E) 4.4 18:13:41 10° NW 18:19:10 87° NE 18:23:04 30° SE
CZ-4C R/B 3.0 18:14:22 10° NNW 18:21:26 58° NE 18:23:06 49° E
Feng Yun 1-1 Rocket 4.4 18:20:53 10° SSE 18:26:49 80° WSW 18:32:45 10° NNW
H-2A R/B 3.9 18:22:44 10° SSW 18:27:17 30° W 18:31:46 10° NW
Cosmos 1666 Rocket 4.0 18:26:46 10° NNW 18:31:10 60° W 18:35:30 10° S
Cosmos 540 Rocket 4.4 18:27:53 10° SW 18:32:44 43° WNW 18:34:57 28° N
Cosmos 1833 Rocket 3.9 18:29:30 10° WSW 18:34:41 37° NW 18:37:45 22° N
Cosmos 1151 Rocket 3.7 18:30:43 10° SSW 18:34:32 52° WSW 18:34:32 52° WSW
ISS -0.9 18:32:01 10° NW 18:32:38 14° NW 18:32:38 14° NW
Meteor 2-15 4.2 18:30:03 10° S 18:36:09 79° E 18:36:09 79° E
ARGOS 4.4 18:33:38 10° SSW 18:38:42 40° W 18:43:49 10° NNW
COSMOS 2455 3.8 19:07:56 10° WSW 19:13:35 42° NW 19:13:42 42° NW
Cosmos 1980 Rocket 4.1 19:33:50 10° NW 19:38:18 24° WSW 19:38:33 24° WSW
Cosmos 2082 Rocket 4.3 19:43:42 10° WSW 19:47:04 22° WNW 19:47:04 22° WNW
CZ-4C R/B 4.2 20:03:05 10° NW 20:08:21 37° W 20:08:21 37° W
